TimePST,TemperatureF,Dew PointF,Humidity,Sea Level PressureIn,VisibilityMPH,Wind Direction,Wind SpeedMPH,Gust SpeedMPH,PrecipitationIn,Events,Conditions,WindDirDegrees,DateUTC
12:04 AM,28.4,28.4,100,30.30,0.2,Calm,Calm,-,N/A,Fog,Light Freezing Fog,0,2013-02-03 08:04:00
12:21 AM,26.6,26.6,100,30.29,1.0,NE,3.5,-,N/A,,Mist,50,2013-02-03 08:21:00
12:24 AM,26.6,26.6,100,30.29,4.0,ENE,3.5,-,N/A,,Mostly Cloudy,60,2013-02-03 08:24:00
12:33 AM,26.6,24.8,93,30.30,7.0,North,5.8,-,N/A,,Scattered Clouds,10,2013-02-03 08:33:00
12:53 AM,26.1,25.0,96,30.30,9.0,East,3.5,-,N/A,,Clear,80,2013-02-03 08:53:00
1:53 AM,27.0,26.1,96,30.30,9.0,SE,3.5,-,N/A,,Clear,140,2013-02-03 09:53:00
2:17 AM,28.4,26.6,93,30.28,5.0,SE,6.9,-,N/A,,Scattered Clouds,140,2013-02-03 10:17:00
2:21 AM,28.4,26.6,93,30.28,0.8,SE,4.6,-,N/A,,Mist,140,2013-02-03 10:21:00
2:25 AM,28.4,28.4,100,30.29,0.2,SSE,4.6,-,N/A,Fog,Light Freezing Fog,150,2013-02-03 10:25:00
2:53 AM,30.0,28.9,96,30.28,0.2,SE,4.6,-,N/A,Fog,Light Freezing Fog,140,2013-02-03 10:53:00
3:42 AM,28.4,28.4,100,30.27,0.2,East,3.5,-,N/A,Fog,Light Freezing Fog,100,2013-02-03 11:42:00
3:53 AM,28.9,28.9,100,30.28,0.2,SE,4.6,-,N/A,Fog,Light Freezing Fog,140,2013-02-03 11:53:00
4:53 AM,28.9,28.9,100,30.26,0.2,ESE,3.5,-,N/A,Fog,Light Freezing Fog,110,2013-02-03 12:53:00
5:02 AM,28.4,28.4,100,30.25,0.2,ESE,3.5,-,N/A,Fog,Light Freezing Fog,120,2013-02-03 13:02:00
5:31 AM,28.4,28.4,100,30.25,0.2,Calm,Calm,-,N/A,Fog,Light Freezing Fog,0,2013-02-03 13:31:00
5:53 AM,28.9,28.0,96,30.27,0.2,NNW,4.6,-,N/A,Fog,Light Freezing Fog,340,2013-02-03 13:53:00
6:37 AM,28.4,28.4,100,30.26,0.2,Calm,Calm,-,N/A,Fog,Light Freezing Fog,0,2013-02-03 14:37:00
6:53 AM,28.9,28.9,100,30.29,0.2,NW,3.5,-,N/A,Fog,Light Freezing Fog,310,2013-02-03 14:53:00
7:53 AM,30.0,28.9,96,30.27,0.2,Calm,Calm,-,N/A,Fog,Light Freezing Fog,0,2013-02-03 15:53:00
8:53 AM,30.9,30.9,100,30.29,0.2,Calm,Calm,-,N/A,Fog,Light Freezing Fog,0,2013-02-03 16:53:00
9:53 AM,32.0,30.9,96,30.29,0.2,ESE,4.6,-,N/A,Fog,Fog,120,2013-02-03 17:53:00
10:53 AM,32.0,32.0,100,30.30,0.8,Calm,Calm,-,N/A,,Overcast,0,2013-02-03 18:53:00
11:53 AM,33.1,33.1,100,30.27,1.2,Calm,Calm,-,N/A,,Overcast,0,2013-02-03 19:53:00
12:53 PM,35.1,34.0,96,30.25,1.2,Calm,Calm,-,N/A,,Overcast,0,2013-02-03 20:53:00
1:53 PM,37.0,35.1,93,30.22,1.8,Calm,Calm,-,N/A,,Overcast,0,2013-02-03 21:53:00
2:53 PM,37.0,35.1,93,30.22,1.2,NW,3.5,-,N/A,,Overcast,310,2013-02-03 22:53:00
3:53 PM,37.0,35.1,93,30.22,1.2,Calm,Calm,-,N/A,,Overcast,0,2013-02-03 23:53:00
4:53 PM,36.0,35.1,97,30.21,1.5,NW,5.8,-,N/A,,Overcast,310,2013-02-04 00:53:00
5:53 PM,36.0,34.0,93,30.22,1.5,WNW,5.8,-,N/A,,Overcast,290,2013-02-04 01:53:00
6:53 PM,36.0,35.1,97,30.22,1.5,West,4.6,-,N/A,,Overcast,270,2013-02-04 02:53:00
7:53 PM,36.0,34.0,93,30.21,7.0,Calm,Calm,-,N/A,,Overcast,0,2013-02-04 03:53:00
8:34 PM,35.6,33.8,93,30.20,7.0,NNW,3.5,-,N/A,,Overcast,340,2013-02-04 04:34:00
8:53 PM,36.0,34.0,93,30.22,7.0,Calm,Calm,-,N/A,,Overcast,0,2013-02-04 04:53:00
9:53 PM,36.0,34.0,93,30.20,7.0,Calm,Calm,-,N/A,,Overcast,0,2013-02-04 05:53:00
10:48 PM,35.6,33.8,93,30.18,7.0,East,3.5,-,N/A,,Overcast,80,2013-02-04 06:48:00
10:53 PM,36.0,34.0,93,30.19,6.0,Calm,Calm,-,N/A,,Overcast,0,2013-02-04 06:53:00
11:53 PM,36.0,34.0,93,30.19,6.0,ESE,4.6,-,N/A,,Overcast,120,2013-02-04 07:53:00